[[{"header":{"parameterUnit":"m.s-1","parameterCategory":1,"la1":30.2991,"la2":30.254,"lo1":-89.0895,"lo2":-89.0444,"dy":0.0017,"dx":0.0017,"nx":28,"ny":28,"refTime":"2024-05-25T09:00:00:Z","depth":0,"parameterNumber":2,"parameterNumberName":"U-component_of_WINDS"},"data":[0,0,0,0,0,0,0,0,0,0,0,0,0,0,0,0,0,0,0,0,0,0,0,0,0,0,0,0,0,0,0,0,0,0,0,0,0,0,0,0,0,0,0,0,0,0,0,0,0,0,0,0,0,0,0,0,0,0,-0.6514,-0.6514,0,-0.6467,-0.6466,-0.6466,-0.6401,-0.64,-0.6399,-0.6398,-0.635,-0.635,-0.635,0,0,0,0,0,0,0,0,0,0,0,0,0,-0.655,-0.655,-0.6514,-0.6514,-0.6513,-0.6467,-0.6466,-0.6465,-0.6401,-0.64,-0.6398,-0.6397,-0.635,-0.635,-0.635,0,0,0,0,0,0,0,0,0,0,0,0,0,-0.6522,-0.655,-0.6514,-0.6475,-0.6471,-0.6467,-0.6466,-0.6465,-0.6401,-0.64,-0.6398,-0.6397,-0.635,-0.635,-0.635,-0.638,0,0,-0.6349,-0.6348,0,0,0,0,0,0,0,0,-0.6524,-0.6521,-0.6481,-0.6478,-0.6473,-0.6438,-0.6461,-0.6437,-0.6402,-0.6428,-0.6398,-0.6396,-0.6381,-0.6378,-0.6373,-0.6378,-0.6376,-0.6348,-0.6348,-0.6348,-0.6348,0,0,0,0,0,0,0,-0.6526,-0.6523,-0.6495,-0.6481,-0.6476,-0.6461,-0.6455,-0.6457,-0.6414,-0.6426,-0.6421,-0.6416,-0.6378,-0.6373,-0.6371,-0.6375,-0.6348,-0.6348,-0.6348,-0.6348,-0.6403,-0.6405,0,0,0,0,0,0,-0.6533,-0.6525,-0.6497,-0.6494,-0.6495,-0.6461,-0.6455,-0.6451,-0.6414,-0.6407,-0.6417,-0.6413,-0.6375,-0.6371,-0.6369,-0.6402,-0.6348,-0.6348,-0.6348,-0.6402,-0.6404,-0.6406,0,0,0,0,0,0,-0.6534,-0.6532,-0.6499,-0.6508,-0.6503,-0.6462,-0.6459,-0.6451,-0.6446,-0.6408,-0.64,-0.642,-0.6373,-0.637,-0.6378,-0.6399,-0.6348,-0.6347,-0.64,-0.6402,-0.6405,-0.6468,0,0,0,0,0,0,-0.6536,-0.6532,-0.6543,-0.6509,-0.6502,-0.6508,-0.646,-0.6451,-0.6445,-0.6439,-0.6408,-0.6401,-0.6372,-0.6379,-0.6377,-0.6398,-0.6347,-0.6397,-0.6401,-0.6404,-0.6464,-0.6473,-0.648,0,0,0,0,0,-0.6537,-0.6563,-0.6544,-0.6541,-0.6515,-0.6509,-0.6506,-0.6471,-0.6447,-0.6458,-0.6434,-0.6402,-0.6398,-0.638,-0.6378,-0.6399,-0.6396,-0.64,-0.6404,-0.6461,-0.6471,-0.648,0,0,0,0,0,0,-0.6601,-0.6558,-0.6536,-0.6551,-0.6535,-0.6498,-0.6511,-0.6483,-0.6473,-0.6468,-0.6425,-0.6419,-0.6432,-0.6417,-0.6398,-0.6427,-0.6392,-0.6396,-0.6436,-0.6446,-0.6454,-0.6457,-0.6347,0,0,0,0,0,-0.6617,-0.6616,-0.6578,-0.6596,-0.6588,-0.6551,-0.6548,-0.6522,-0.6503,-0.6496,-0.6472,-0.6455,-0.645,-0.6447,-0.644,-0.6462,-0.6454,-0.6476,-0.6484,-0.649,-0.6494,-0.6504,-0.6513,-0.6418,-0.6418,-0.6418,0,0,-0.665,-0.6626,-0.6628,-0.6608,-0.6592,-0.6592,-0.6546,-0.6547,-0.6547,-0.6496,-0.6502,-0.6485,-0.6463,-0.6478,-0.6484,-0.6465,-0.6518,-0.6495,-0.6501,-0.65,-0.6509,-0.6518,-0.6526,-0.6421,-0.642,-0.642,0,0,-0.671,-0.6692,-0.6704,-0.6689,-0.6665,-0.664,-0.6643,-0.6612,-0.6598,-0.6603,-0.6565,-0.6564,-0.6556,-0.6542,-0.6534,-0.659,-0.656,-0.6589,-0.663,-0.6641,-0.6649,-0.6655,-0.6674,-0.6682,-0.6593,-0.6593,-0.6593,0,-0.6754,-0.6751,-0.6714,-0.6718,-0.671,-0.6664,-0.6676,-0.6664,-0.6639,-0.6635,-0.6615,-0.6604,-0.6587,-0.6598,-0.6611,-0.6607,-0.6609,-0.6592,-0.665,-0.6657,-0.6662,-0.668,-0.6687,-0.6596,-0.6596,-0.6595,-0.6595,0,-0.6806,-0.6806,-0.6818,-0.6795,-0.6789,-0.6798,-0.6762,-0.6761,-0.6736,-0.6714,-0.6721,-0.6698,-0.6685,-0.6687,-0.6663,-0.6695,-0.6684,-0.6658,-0.6622,-0.6675,-0.6691,-0.6698,-0.6601,-0.66,-0.6599,-0.6598,0,0,-0.6904,-0.686,-0.6865,-0.6854,-0.6825,-0.6824,-0.6831,-0.6819,-0.6818,-0.6803,-0.6808,-0.6803,-0.6778,-0.6769,-0.6744,-0.6754,-0.6799,-0.6726,-0.6725,-0.674,-0.6832,-0.6852,-0.686,-0.678,-0.6781,-0.6782,-0.6834,0,-0.6957,-0.6965,-0.6932,-0.6949,-0.6948,-0.6904,-0.691,-0.6893,-0.6873,-0.687,-0.6848,-0.6844,-0.6813,-0.6807,-0.6815,-0.6792,-0.6817,-0.6788,-0.6783,-0.6784,-0.6789,-0.6869,-0.6889,-0.6939,-0.684,-0.6841,-0.6842,0,-0.702,-0.7008,-0.7025,-0.6995,-0.6993,-0.6999,-0.6985,-0.6982,-0.6963,-0.6947,-0.6938,-0.6908,-0.6914,-0.6881,-0.6887,-0.6868,-0.6865,-0.6853,-0.6854,-0.6852,-0.6815,-0.6868,-0.6954,-0.6961,-0.6852,-0.6851,-0.685,0,-0.7089,-0.7077,-0.7085,-0.7077,-0.7043,-0.7048,-0.7034,-0.7012,-0.7007,-0.6996,-0.6992,-0.6982,-0.6976,-0.6968,-0.6937,-0.6916,-0.6948,-0.6912,-0.6935,-0.6936,-0.6943,-0.6942,-0.7029,-0.6942,-0.6942,-0.6942,-0.6942,0,-0.7151,-0.7163,-0.7115,-0.7121,-0.7133,-0.7095,-0.7108,-0.709,-0.7072,-0.7073,-0.7036,-0.7038,-0.6997,-0.6995,-0.6971,-0.698,-0.6978,-0.6966,-0.6959,-0.6968,-0.697,-0.6965,-0.696,-0.6944,-0.6944,-0.6943,-0.6943,0,-0.723,-0.7198,-0.7204,-0.7171,-0.7163,-0.7174,-0.7145,-0.7149,-0.7127,-0.7129,-0.7128,-0.7093,-0.7089,-0.7057,-0.7046,-0.703,-0.7047,-0.7034,-0.7054,-0.7049,-0.7074,-0.7072,-0.716,-0.7169,-0.7077,-0.7078,-0.7079,0,-0.7271,-0.7279,-0.7247,-0.7245,-0.7232,-0.7229,-0.7224,-0.7187,-0.7183,-0.7162,-0.7168,-0.7161,-0.7153,-0.7148,-0.7122,-0.7113,-0.7099,-0.7131,-0.7098,-0.7107,-0.7099,-0.7099,-0.7099,-0.7138,-0.7139,-0.714,-0.7141,0,-0.7348,-0.7332,-0.7325,-0.7313,-0.7307,-0.7296,-0.7283,-0.7284,-0.7244,-0.7241,-0.7236,-0.723,-0.7218,-0.7211,-0.7198,-0.7184,-0.7156,-0.7151,-0.7156,-0.7166,-0.7176,-0.717,-0.7072,-0.7149,-0.7148,-0.7148,-0.7147,-0.7147,-0.7409,-0.7414,-0.7392,-0.7385,-0.7371,-0.736,-0.7362,-0.734,-0.7334,-0.7322,-0.7301,-0.7299,-0.728,-0.7259,-0.7248,-0.7246,-0.7229,-0.7237,-0.7238,-0.724,-0.7245,-0.7177,-0.7244,-0.7243,-0.7243,-0.7243,-0.7243,0,-0.7483,-0.7467,-0.7461,-0.7444,-0.7439,-0.7413,-0.7397,-0.7395,-0.7393,-0.7377,-0.737,-0.7364,-0.7358,-0.7332,-0.7322,-0.7326,-0.7313,-0.7325,-0.7324,-0.7321,-0.7261,-0.7257,-0.7336,-0.7336,-0.7336,-0.7336,-0.7336,-0.7336,-0.7521,-0.7528,-0.751,-0.751,-0.7494,-0.7491,-0.7484,-0.7473,-0.746,-0.7456,-0.745,-0.7433,-0.7413,-0.7402,-0.7395,-0.7388,-0.7386,-0.7402,-0.739,-0.7334,-0.7325,-0.7317,-0.7313,-0.7402,-0.7402,-0.7451,-0.7451,-0.7452]},{"header":{"parameterUnit":"m.s-1","parameterCategory":1,"la1":30.2991,"la2":30.254,"lo1":-89.0895,"lo2":-89.0444,"dy":0.0017,"dx":0.0017,"nx":28,"ny":28,"refTime":"2024-05-25T09:00:00:Z","depth":0,"parameterNumber":3,"parameterNumberName":"V-component_of_WINDS"},"data":[0,0,0,0,0,0,0,0,0,0,0,0,0,0,0,0,0,0,0,0,0,0,0,0,0,0,0,0,0,0,0,0,0,0,0,0,0,0,0,0,0,0,0,0,0,0,0,0,0,0,0,0,0,0,0,0,0,0,4.5824,4.5824,0,4.5814,4.5814,4.5814,4.5828,4.5829,4.5829,4.583,4.5815,4.5814,4.5813,0,0,0,0,0,0,0,0,0,0,0,0,0,4.5853,4.5852,4.5824,4.5824,4.5824,4.5814,4.5814,4.5814,4.5828,4.5829,4.5829,4.583,4.5815,4.5814,4.5813,0,0,0,0,0,0,0,0,0,0,0,0,0,4.5841,4.5852,4.5824,4.583,4.583,4.5814,4.5814,4.5814,4.5828,4.5829,4.583,4.583,4.5816,4.5814,4.5813,4.5789,0,0,4.5809,4.5808,0,0,0,0,0,0,0,0,4.5842,4.584,4.5829,4.583,4.583,4.5823,4.5819,4.5805,4.5828,4.5829,4.583,4.5831,4.5817,4.5816,4.5812,4.5789,4.5788,4.5809,4.5808,4.5808,4.5807,0,0,0,0,0,0,0,4.5843,4.5841,4.582,4.5829,4.583,4.5832,4.5831,4.5816,4.5818,4.5829,4.583,4.5829,4.5817,4.5813,4.5811,4.5788,4.5809,4.5808,4.5807,4.5806,4.5746,4.5745,0,0,0,0,0,0,4.5843,4.5841,4.582,4.582,4.5838,4.5831,4.583,4.5825,4.5819,4.5819,4.5828,4.5829,4.5815,4.5813,4.5811,4.5783,4.5808,4.5806,4.5806,4.5747,4.5746,4.5745,0,0,0,0,0,0,4.5844,4.5841,4.5821,4.5831,4.5828,4.583,4.5823,4.5824,4.582,4.5818,4.5818,4.5824,4.5815,4.5813,4.5795,4.5783,4.5806,4.5805,4.5747,4.5746,4.5745,4.5728,0,0,0,0,0,0,4.5845,4.5841,4.5833,4.5831,4.5828,4.5806,4.5823,4.5823,4.5818,4.582,4.5814,4.5814,4.5816,4.5797,4.5794,4.5782,4.5804,4.5749,4.5747,4.5745,4.5729,4.5726,4.5723,0,0,0,0,0,4.5845,4.5827,4.5832,4.583,4.5817,4.5805,4.5803,4.5808,4.5817,4.5808,4.5807,4.5814,4.5785,4.5795,4.5792,4.5779,4.5749,4.5747,4.5746,4.5731,4.5727,4.5723,0,0,0,0,0,0,4.5826,4.5827,4.5833,4.5813,4.5809,4.5808,4.5796,4.5803,4.5795,4.5797,4.5801,4.5799,4.5781,4.5778,4.5789,4.5756,4.5769,4.5766,4.5759,4.5755,4.5752,4.5752,4.5802,0,0,0,0,0,4.582,4.5811,4.5812,4.5794,4.5792,4.5795,4.5789,4.5793,4.5789,4.5787,4.5784,4.5779,4.5769,4.5761,4.5752,4.5729,4.5728,4.5719,4.5716,4.5713,4.5711,4.5699,4.5695,4.5739,4.5739,4.5739,0,0,4.5806,4.5805,4.5799,4.579,4.5788,4.5778,4.5793,4.5781,4.5774,4.5784,4.5768,4.5766,4.576,4.574,4.5731,4.5737,4.5699,4.5711,4.5709,4.5708,4.5697,4.5693,4.5689,4.5737,4.5738,4.5738,0,0,4.5776,4.5775,4.5761,4.5758,4.5755,4.5757,4.5754,4.5752,4.5752,4.5736,4.5744,4.5735,4.5717,4.5712,4.5708,4.5679,4.5684,4.5675,4.5659,4.5648,4.5644,4.5641,4.5631,4.5627,4.5673,4.5673,4.5673,0,4.5759,4.5745,4.5752,4.5741,4.5737,4.5748,4.5734,4.573,4.5723,4.572,4.5728,4.5707,4.5703,4.5683,4.5676,4.5672,4.5668,4.5675,4.5644,4.5641,4.5639,4.5629,4.5625,4.5672,4.5672,4.5672,4.5672,0,4.5724,4.5715,4.5704,4.5699,4.5694,4.5681,4.5685,4.5679,4.5684,4.5685,4.5669,4.5666,4.5656,4.5652,4.5655,4.5632,4.5636,4.5644,4.5657,4.5634,4.5624,4.5621,4.567,4.567,4.5671,4.5671,0,0,4.568,4.5681,4.5677,4.5675,4.5673,4.5666,4.5653,4.5646,4.5641,4.5636,4.5625,4.5611,4.5619,4.5614,4.5617,4.5608,4.5585,4.5617,4.5617,4.5611,4.556,4.5554,4.555,4.559,4.5589,4.5588,4.5561,0,4.565,4.5631,4.5638,4.5617,4.5608,4.562,4.5609,4.5606,4.5608,4.56,4.5601,4.5591,4.5602,4.5599,4.559,4.559,4.5575,4.5592,4.5579,4.5579,4.558,4.5545,4.5538,4.5512,4.5557,4.5557,4.5556,0,4.5613,4.5609,4.5588,4.5589,4.5586,4.5576,4.557,4.5563,4.556,4.5562,4.5557,4.5563,4.5551,4.5564,4.5547,4.5559,4.5554,4.5553,4.5552,4.5551,4.5566,4.5542,4.5504,4.55,4.5551,4.5551,4.5551,0,4.5583,4.5572,4.5559,4.5557,4.5558,4.5551,4.555,4.5549,4.5544,4.5539,4.5536,4.5529,4.5525,4.5519,4.5523,4.5532,4.5505,4.5519,4.5506,4.5506,4.5499,4.5499,4.5459,4.5496,4.5496,4.5496,4.5496,0,4.5549,4.5536,4.5546,4.5537,4.5523,4.5531,4.5516,4.5517,4.5516,4.5507,4.5516,4.5508,4.5514,4.5506,4.5508,4.5494,4.5492,4.5492,4.5493,4.5491,4.5491,4.5488,4.549,4.5495,4.5495,4.5496,4.5496,0,4.5513,4.5519,4.5505,4.5508,4.5508,4.5497,4.5499,4.5491,4.5494,4.5483,4.5481,4.5485,4.5476,4.548,4.547,4.5472,4.5453,4.5457,4.5455,4.5455,4.5442,4.5443,4.5398,4.5393,4.5434,4.5433,4.5433,0,4.5491,4.5481,4.5484,4.5479,4.5479,4.5472,4.5468,4.5476,4.5471,4.5469,4.5461,4.5453,4.5448,4.5433,4.5434,4.5427,4.543,4.5415,4.5429,4.5428,4.543,4.5431,4.543,4.5412,4.5411,4.5411,4.5411,0,4.5451,4.5455,4.545,4.5446,4.5442,4.5439,4.5436,4.5432,4.544,4.5434,4.5427,4.5422,4.5414,4.5406,4.54,4.5399,4.5406,4.5407,4.5403,4.5401,4.54,4.5401,4.5447,4.5407,4.5408,4.5408,4.5408,4.5408,4.5421,4.5413,4.5415,4.5409,4.5408,4.5406,4.54,4.5402,4.5396,4.5391,4.5396,4.5387,4.5385,4.5378,4.5376,4.5369,4.5375,4.5369,4.5368,4.5367,4.5365,4.5402,4.5368,4.5368,4.5368,4.5368,4.5368,0,4.5382,4.5383,4.5378,4.5376,4.5371,4.5381,4.5379,4.5374,4.5366,4.5365,4.536,4.5352,4.5345,4.5346,4.534,4.5334,4.5337,4.5332,4.5332,4.5332,4.536,4.5364,4.533,4.533,4.533,4.533,4.533,4.533,4.5361,4.5349,4.5353,4.5341,4.5343,4.5335,4.5334,4.5332,4.5331,4.5322,4.5317,4.5318,4.5318,4.5313,4.5307,4.5307,4.5304,4.5298,4.53,4.5326,4.533,4.5333,4.5337,4.5298,4.5297,4.5272,4.5272,4.5272]}]]